Theta_e
315 316 318 314 318 323 324 328 325 328 330 332 335 329 324 328 331 337 348 347 347 344 339 340 341 344 345 344 345 344 344 346 346 346 347 341 337 339 338 337 338 337 333 330 334 334 334 335 334 332 330 331 334 334 333 333 333 333 333 333 333 333 332 332 333 333 333 334 335 335 333 333 334 333 332 331 330 328 329 329 328 329 328 329 330 332 332 330 327 327 329 331 333 334 333 334 334
317 320 321 319 319 320 325 332 330 336 340 334 332 330 328 337 342 345 351 349 348 343 339 339 340 342 342 342 343 343 343 342 340 341 340 338 338 339 338 338 337 334 330 332 335 333 334 334 330 328 330 333 334 333 333 333 332 332 332 332 332 332 332 333 333 333 333 333 334 334 333 333 334 333 332 330 329 327 329 331 330 329 326 328 331 332 332 332 330 330 331 333 334 333 333 333 332
319 323 323 323 320 321 331 332 330 339 342 335 335 334 335 346 349 347 346 347 346 341 341 342 342 341 341 345 345 344 343 340 339 339 339 338 339 339 338 338 337 333 330 333 334 332 332 330 326 327 332 334 333 333 333 333 332 331 331 331 332 332 332 333 334 334 333 334 334 333 332 333 333 332 330 328 328 328 329 329 330 328 326 327 330 331 332 332 332 332 332 333 334 333 332 333 332
320 323 322 324 322 326 338 335 334 338 337 333 334 340 345 348 347 343 343 345 344 341 343 345 344 340 341 347 344 342 342 340 339 339 339 338 338 338 338 338 335 329 329 333 332 330 329 326 324 326 332 334 333 333 332 332 331 330 330 331 332 332 333 334 334 334 335 334 333 332 332 333 332 330 329 328 329 329 328 329 331 330 328 328 329 331 332 332 332 332 332 332 333 333 332 332 331
319 320 320 324 327 327 334 332 333 334 334 331 331 345 349 346 346 343 343 344 342 342 344 344 344 340 339 342 341 343 342 339 338 337 339 338 338 338 338 336 330 325 328 332 330 328 326 324 322 323 330 333 333 333 332 330 329 330 330 331 333 332 333 333 334 334 334 333 332 332 332 332 330 329 329 329 330 330 331 332 333 333 333 333 333 333 333 333 333 333 333 332 332 333 333 332 331
317 319 321 323 324 324 328 327 328 332 334 329 331 350 349 344 346 342 343 343 341 342 342 343 344 342 340 340 339 341 340 339 339 337 337 338 338 338 336 331 324 324 328 329 327 325 324 322 321 322 326 331 333 331 330 330 329 330 330 331 332 331 331 331 331 331 332 331 331 331 330 329 328 329 330 331 331 332 333 334 334 334 335 335 335 334 334 334 334 334 334 333 332 333 334 332 332
317 321 324 325 323 324 333 331 330 332 329 328 335 349 345 344 345 342 344 342 341 342 342 343 341 342 341 340 339 338 338 338 338 338 337 338 338 336 334 327 321 323 326 325 324 323 323 321 321 321 323 330 332 331 330 330 329 330 330 330 328 328 329 329 329 329 329 330 330 330 328 328 328 330 331 332 332 333 334 333 334 335 336 336 334 333 334 334 334 334 333 333 333 333 332 332 332
317 321 324 330 329 327 332 330 329 332 332 335 339 344 343 344 344 345 348 342 343 343 342 342 338 341 342 339 341 338 337 337 337 338 337 337 336 333 331 324 320 322 324 323 323 323 322 321 321 322 322 327 330 330 330 330 329 330 330 330 329 328 327 328 328 328 328 328 329 329 328 328 329 330 331 333 333 334 334 333 335 335 335 335 334 333 333 333 334 334 333 333 333 332 332 332 332
316 319 322 327 328 329 332 325 326 334 339 341 339 343 343 342 343 347 350 344 343 343 341 342 339 341 342 339 342 338 336 338 337 338 337 335 333 330 327 322 321 323 324 323 323 322 321 321 322 322 322 324 326 327 327 327 327 327 328 328 329 329 328 328 328 328 327 327 328 328 327 327 328 329 331 332 332 333 332 333 335 334 334 335 334 333 333 333 334 333 333 333 333 332 332 332 332
321 321 322 329 330 330 331 327 333 339 341 341 339 342 340 339 342 344 348 345 342 343 341 340 341 342 341 340 341 338 337 337 337 337 336 334 330 328 326 323 322 323 323 323 322 321 320 321 322 323 323 323 324 325 325 325 325 325 326 326 327 328 329 329 328 328 328 329 328 328 328 328 329 329 330 330 330 331 331 332 334 334 335 335 334 334 333 333 333 333 333 333 333 332 333 333 332
329 326 326 335 333 329 330 335 343 344 342 343 342 341 340 339 342 342 344 342 340 341 340 340 341 340 339 340 339 336 337 337 336 337 336 334 331 329 328 324 323 323 322 321 321 321 320 320 323 323 323 323 323 324 324 324 325 325 325 326 326 327 327 328 328 327 327 328 328 328 329 330 330 330 330 330 330 331 332 332 333 335 335 335 335 334 334 333 333 334 334 333 333 332 333 333 333
328 328 335 339 334 329 331 341 347 346 345 344 341 339 339 340 341 342 343 340 340 341 340 341 340 339 339 340 337 333 336 337 336 336 335 334 333 332 329 325 324 324 323 321 321 320 320 321 323 324 325 325 325 324 323 324 324 325 325 325 325 326 326 326 325 324 324 325 327 328 329 330 330 330 330 331 330 331 331 332 333 334 335 335 335 334 334 334 334 334 333 333 333 332 332 333 334
330 330 336 335 332 330 333 342 344 343 346 346 341 337 339 343 341 340 343 342 342 342 340 339 340 339 340 340 336 333 336 337 335 336 335 334 334 333 330 326 325 325 324 322 321 321 323 325 325 326 326 327 327 326 324 324 324 325 326 325 325 326 325 323 322 322 322 323 326 328 329 329 330 330 330 330 331 331 331 332 333 333 335 335 335 335 335 335 334 334 334 333 333 332 333 333 334
332 333 334 330 330 333 337 342 342 343 347 345 339 338 340 341 339 340 345 345 341 341 338 336 338 339 339 338 338 336 336 335 336 336 335 335 335 334 331 327 326 326 326 324 322 323 327 328 328 328 327 327 327 327 327 326 325 325 328 328 325 325 324 322 322 321 321 322 324 327 329 329 329 330 330 330 330 330 331 333 333 333 335 335 334 334 335 335 334 334 334 334 332 332 333 334 334
327 336 339 333 331 333 335 338 341 345 347 342 337 339 340 336 338 343 345 344 339 337 336 334 334 339 340 339 340 337 333 334 336 336 336 337 336 334 331 327 326 328 329 329 327 327 328 328 328 328 328 328 328 328 328 327 326 325 328 329 324 324 323 321 321 320 321 321 323 327 328 329 329 329 329 329 330 330 331 333 332 333 335 334 333 333 334 335 334 333 334 334 333 333 334 334 333
329 340 341 334 333 332 332 336 338 342 343 338 336 338 340 335 337 343 340 339 337 336 338 337 334 336 338 337 338 334 329 333 337 336 337 337 336 335 332 328 327 330 331 331 330 329 328 327 327 328 328 328 328 329 328 328 327 326 326 325 323 323 321 321 321 320 321 321 323 327 328 329 329 329 329 329 329 330 330 331 332 332 333 333 332 333 334 335 334 333 334 334 333 334 333 333 333
331 336 339 333 334 334 334 338 338 342 342 336 334 339 342 337 335 339 337 336 338 337 339 338 334 334 335 334 333 330 329 333 335 335 336 335 333 332 331 329 328 331 333 332 331 330 329 327 327 328 329 329 329 329 328 328 327 325 324 324 324 322 321 321 321 320 321 321 323 327 328 328 329 329 329 329 329 329 330 330 331 331 331 331 333 333 333 334 334 334 334 334 333 333 332 332 333
330 333 335 334 338 339 338 340 339 340 339 335 335 341 344 339 337 337 337 339 339 338 338 338 336 334 332 331 330 331 331 332 334 334 333 332 331 331 331 331 331 332 333 333 332 330 329 328 329 329 330 330 329 329 327 326 325 325 324 325 325 322 321 321 320 321 321 320 323 326 328 328 329 329 329 328 328 329 329 330 330 331 330 331 332 332 332 333 334 334 334 333 333 332 331 331 332
337 338 334 339 343 341 338 340 337 335 339 339 336 342 343 338 337 337 341 342 339 340 339 337 338 335 333 331 330 331 331 331 332 332 332 331 331 331 332 332 332 332 333 333 331 330 329 329 330 330 330 330 328 327 325 324 324 324 324 324 323 321 321 320 320 321 321 321 322 326 328 328 329 328 328 327 327 328 328 329 329 330 331 331 331 331 331 332 333 333 333 333 333 332 331 332 332
338 337 335 347 347 339 338 337 335 332 339 342 338 340 339 335 335 338 343 342 339 343 340 336 337 336 335 333 331 331 331 330 330 331 331 331 331 331 332 333 333 333 333 333 331 330 329 329 330 330 330 329 327 326 324 323 323 324 324 322 320 320 320 320 320 322 322 322 323 326 327 328 328 327 327 327 326 327 328 328 329 330 331 331 331 331 332 332 332 332 332 332 332 331 331 331 331
333 336 342 349 341 336 336 334 334 332 335 340 340 339 337 335 337 339 342 341 342 343 340 338 336 335 336 336 333 330 329 329 329 331 330 330 332 332 332 333 333 333 332 331 331 330 329 330 330 330 329 327 327 325 323 323 324 324 323 321 320 320 320 320 321 321 322 323 324 326 327 327 326 326 326 326 326 327 328 329 329 330 331 331 330 331 332 332 331 332 332 331 331 331 331 331 332
332 338 346 346 336 333 333 334 337 335 335 339 340 339 336 335 338 340 340 341 343 342 342 340 336 334 335 335 333 330 330 330 329 329 330 330 331 332 332 333 333 332 331 330 330 330 330 331 330 329 328 328 327 326 324 324 324 324 322 320 320 320 320 320 321 321 322 323 324 325 326 326 325 325 326 326 327 328 328 329 330 331 331 331 331 331 332 332 331 331 331 330 331 331 331 332 332
335 337 341 343 336 331 331 335 337 335 338 341 338 336 336 338 340 339 337 337 337 338 340 338 333 331 331 332 333 335 337 336 331 328 329 330 331 332 332 332 333 331 330 330 330 330 330 330 330 329 328 328 327 326 325 324 325 324 322 321 321 320 320 320 321 321 322 323 324 324 324 324 324 325 325 326 328 328 329 330 331 332 331 331 331 332 332 331 330 330 331 331 331 331 332 332 332
337 337 339 338 333 330 332 336 335 335 339 338 335 335 339 342 340 336 336 337 336 335 334 334 331 329 330 333 337 339 338 335 331 329 329 331 331 332 332 332 332 331 330 330 330 330 330 330 330 328 328 328 327 325 324 325 325 324 323 322 321 321 320 321 321 321 322 322 322 323 322 323 324 325 326 328 328 328 329 330 331 332 332 332 332 332 332 332 332 332 332 332 332 332 332 332 332
336 337 342 336 330 332 334 336 336 335 335 334 335 338 340 341 339 336 337 338 336 333 332 334 333 332 335 338 340 340 338 334 330 329 329 330 331 331 332 332 332 331 330 330 330 330 330 330 329 328 328 328 327 326 325 326 326 325 325 323 322 321 321 321 321 321 322 322 322 322 323 323 324 325 327 328 328 328 330 330 331 332 333 332 332 332 332 332 332 332 333 333 333 333 333 332 332
339 338 339 335 332 333 333 336 337 335 333 334 339 340 338 338 338 337 337 337 334 332 334 336 335 337 338 339 341 341 342 337 329 329 329 329 330 330 331 331 331 331 330 330 330 330 331 329 329 328 328 329 328 327 327 327 327 326 325 323 322 322 322 322 322 322 322 322 322 323 324 324 324 326 328 328 327 329 330 330 331 332 333 333 332 332 332 332 332 332 332 333 333 333 333 333 333
340 338 335 334 333 331 332 336 336 335 334 337 343 341 338 337 336 336 338 337 333 334 337 336 336 338 338 340 342 339 338 335 329 329 329 328 329 329 331 331 330 331 330 330 330 330 330 329 329 329 329 329 329 329 328 328 328 327 325 323 323 322 322 323 322 322 322 322 323 324 324 324 325 327 328 327 327 330 331 331 331 332 333 333 333 332 333 333 332 332 332 333 333 333 333 333 333
337 336 332 331 332 330 332 336 335 336 335 336 342 339 337 339 338 338 339 337 334 336 338 338 339 340 340 341 341 336 333 331 329 329 328 327 329 329 331 331 330 330 330 330 330 330 330 329 329 330 330 330 330 330 330 329 327 325 325 324 323 323 323 323 322 322 322 323 324 325 325 325 326 327 327 326 327 330 331 332 332 332 333 333 333 333 333 333 333 332 332 332 333 333 333 333 333
337 338 337 332 331 331 331 336 335 335 336 335 338 338 340 343 338 336 337 337 335 337 339 339 340 340 341 341 339 337 333 329 329 328 327 328 328 330 331 331 330 329 330 330 330 330 330 330 330 331 331 331 331 331 330 329 327 326 325 324 323 323 323 323 323 321 322 324 325 325 326 327 327 327 326 325 327 330 331 332 333 333 333 333 333 333 333 333 332 332 332 332 332 332 333 333 333
336 338 342 335 332 334 330 334 336 333 335 334 334 334 340 343 336 335 337 335 336 338 339 339 340 339 340 340 339 338 333 330 330 327 327 328 328 330 331 330 330 329 329 330 330 331 330 330 331 332 332 331 331 331 330 330 328 325 325 325 324 324 324 324 323 322 322 324 324 325 325 326 326 327 326 325 327 329 330 332 333 333 333 333 333 333 333 332 332 332 332 332 332 332 333 333 333
338 333 342 340 332 336 332 332 337 334 333 334 334 334 337 339 335 335 336 335 337 338 338 338 339 339 339 340 339 339 334 330 330 328 327 328 329 330 330 329 329 328 329 330 330 331 331 332 332 332 332 332 331 331 330 330 327 323 323 325 324 324 324 323 323 323 323 324 324 324 324 324 324 325 325 324 325 328 329 331 333 333 333 333 333 333 333 332 331 331 331 331 332 332 333 333 332
344 332 339 343 333 336 334 330 336 336 334 332 334 338 337 337 337 336 335 335 336 337 338 338 338 338 338 339 339 339 335 329 329 330 328 328 329 329 329 329 328 328 329 330 331 331 332 333 333 333 333 332 331 331 331 331 329 325 324 325 325 325 324 323 323 324 324 324 324 324 324 323 323 322 322 322 323 326 328 329 331 332 332 333 333 333 333 332 331 331 330 331 331 331 332 332 332
348 335 337 342 336 335 333 330 333 335 336 333 331 339 340 335 335 336 336 336 336 337 338 337 337 337 337 338 338 337 336 332 331 331 329 329 328 329 329 328 329 329 329 330 331 332 333 334 334 334 333 332 332 332 332 331 329 327 325 325 326 325 324 323 324 324 325 324 324 324 323 323 323 322 322 320 322 325 328 329 329 328 328 330 332 333 333 333 332 331 331 331 330 330 330 331 331
339 337 338 341 338 335 335 333 332 332 338 338 333 339 341 334 334 336 336 336 337 338 338 337 337 336 335 336 336 336 336 337 335 331 330 330 329 328 329 329 329 329 329 330 331 332 333 334 334 334 334 333 332 332 332 330 327 326 326 326 326 326 325 324 324 324 324 324 323 322 322 322 322 323 323 323 323 325 327 328 327 324 323 326 329 331 332 333 332 332 331 331 331 330 330 330 330
331 337 338 337 336 334 335 335 333 334 337 339 335 337 339 335 335 337 336 336 338 338 336 336 335 335 334 334 336 335 335 338 336 330 330 331 330 329 329 329 329 329 330 330 331 332 333 334 334 334 334 333 332 332 332 330 327 326 326 326 326 326 325 325 325 323 323 322 322 322 322 323 323 324 324 324 325 326 327 328 326 324 323 324 326 328 332 333 333 333 332 332 331 331 330 329 329
336 344 343 338 334 331 335 335 332 333 335 338 337 338 339 337 338 338 336 336 337 338 336 335 334 335 334 334 335 334 334 336 332 328 330 331 331 331 330 329 329 330 331 331 332 333 333 334 334 334 334 333 332 332 332 330 328 327 326 327 328 327 326 326 325 324 324 324 325 325 325 325 325 325 325 325 325 326 327 328 327 325 324 324 324 326 329 333 334 333 333 332 332 331 330 329 329
338 342 341 338 334 332 334 333 331 332 334 337 335 337 338 338 339 337 335 336 337 337 336 335 334 334 334 334 334 334 334 333 329 328 330 330 331 331 330 329 330 331 331 331 332 333 334 334 334 335 335 334 333 332 332 331 330 329 328 329 329 328 327 326 326 326 326 326 326 326 326 326 326 326 325 325 325 326 326 327 327 326 326 326 325 325 326 329 333 333 333 332 331 331 330 329 329
338 338 337 336 335 335 332 331 331 331 334 336 333 336 337 336 338 334 334 336 337 336 336 335 334 333 333 333 333 333 332 330 331 331 329 329 331 330 329 330 331 332 332 332 332 333 333 333 334 335 335 334 333 333 332 331 331 331 330 329 329 329 328 327 326 326 326 327 327 327 327 327 327 326 327 326 326 326 327 328 328 327 327 326 326 326 325 325 328 331 332 331 331 330 330 330 329
341 338 335 333 334 332 329 330 331 330 333 336 334 335 335 334 336 334 334 335 335 335 334 334 333 332 332 331 332 332 330 332 337 335 330 329 330 329 330 330 331 331 331 332 332 333 333 333 335 335 334 334 333 332 332 331 332 331 331 330 329 330 330 328 327 327 326 327 327 327 327 327 328 327 328 327 326 327 327 328 327 327 327 326 326 326 326 325 325 327 329 331 331 330 330 330 329
339 338 333 331 332 328 327 331 332 329 333 335 334 337 338 335 335 334 332 332 333 332 333 333 332 332 331 330 330 331 331 333 337 337 333 329 329 330 330 330 331 332 332 332 332 333 334 334 334 334 334 334 333 333 332 332 332 332 331 330 330 330 330 329 327 327 327 327 327 328 328 328 329 329 329 328 327 327 327 328 328 327 327 326 326 326 327 326 326 326 327 329 329 328 328 328 329
336 337 333 332 332 331 329 333 334 331 330 332 335 341 344 339 335 336 333 330 331 331 332 334 332 331 331 329 329 331 331 332 334 337 335 331 329 330 330 330 331 332 332 332 332 332 333 333 334 334 334 333 333 333 332 332 332 332 331 330 330 330 330 329 327 327 327 327 328 328 328 329 329 330 330 329 328 328 328 329 329 329 328 328 328 328 328 328 327 326 326 326 326 326 325 325 326
333 333 334 333 331 332 330 333 337 335 334 337 336 338 344 341 335 335 335 331 331 331 332 333 332 331 330 329 330 330 330 330 332 334 333 331 329 329 330 331 332 332 332 332 332 332 333 333 333 333 334 333 332 332 332 332 332 332 331 330 331 331 331 330 328 327 328 328 329 329 329 328 329 330 330 331 331 331 331 331 331 331 330 330 329 329 329 329 329 327 326 326 325 325 325 326 326
332 332 334 332 331 334 331 332 338 337 335 336 334 337 342 342 336 334 335 333 332 332 332 332 331 331 330 328 329 330 330 330 332 332 332 331 329 330 330 331 332 332 332 332 332 332 333 332 332 333 333 332 332 332 332 332 332 332 332 331 331 331 331 330 329 329 329 329 329 330 330 329 330 331 331 332 332 332 332 332 332 332 332 331 331 330 330 330 329 329 328 327 326 326 325 326 326
336 335 332 331 334 337 334 337 342 341 337 335 338 338 335 338 338 332 332 334 332 332 332 331 330 330 330 329 329 329 329 330 332 333 333 332 330 330 330 331 332 332 332 332 332 333 333 332 332 333 333 332 333 332 332 332 331 332 332 332 332 331 331 330 330 330 331 331 330 331 331 331 332 332 332 333 333 334 334 334 333 333 333 333 332 332 331 331 330 330 330 329 328 327 326 326 327
338 334 331 334 336 338 340 343 346 343 336 334 339 333 329 341 346 333 328 332 333 331 331 330 330 330 330 329 328 328 329 329 331 332 333 331 329 330 330 331 332 332 332 332 332 333 333 332 333 333 333 333 333 333 332 332 332 332 333 333 332 332 331 330 331 330 331 331 331 331 332 332 333 333 334 334 334 335 335 335 335 334 334 333 333 333 333 332 331 331 331 331 330 329 328 328 327
331 329 333 336 337 343 346 346 344 341 335 334 337 331 330 342 349 335 327 331 332 331 330 329 328 329 328 328 328 328 329 330 330 331 331 329 329 330 330 331 332 332 333 333 333 333 333 333 334 333 333 333 334 333 333 332 332 332 332 333 333 333 332 331 331 331 331 331 331 332 333 332 333 334 335 335 335 336 336 336 336 335 334 334 334 334 333 333 332 332 331 331 331 330 330 329 329
328 334 337 333 339 349 352 351 342 335 338 339 337 333 330 337 346 341 332 334 334 329 330 329 328 329 328 328 328 328 330 330 330 331 330 328 329 331 331 332 332 332 333 333 333 333 333 333 334 333 333 333 333 333 334 333 333 332 333 333 333 333 333 332 332 331 331 331 331 332 333 333 334 335 335 336 336 337 337 337 336 335 334 334 333 333 333 333 332 331 332 332 331 331 331 330 330
333 342 338 329 337 343 344 345 338 334 340 342 338 335 329 334 346 345 335 337 337 330 330 332 330 329 328 327 328 327 329 329 330 331 331 331 331 331 331 332 332 333 333 333 333 333 332 333 334 333 333 334 333 333 334 334 333 333 334 334 333 333 333 333 333 332 331 331 331 332 333 334 335 336 336 336 337 337 337 336 335 334 333 332 332 332 332 332 332 330 331 331 331 331 331 330 330
332 338 339 333 334 336 338 341 339 339 339 335 337 335 328 332 340 340 335 334 335 331 329 330 329 329 328 327 327 327 328 330 330 330 332 333 333 330 330 332 332 333 333 333 333 333 332 333 334 333 333 333 333 333 334 334 334 334 334 334 333 333 334 334 333 332 331 330 331 332 334 335 336 336 336 336 337 337 336 335 333 332 332 331 330 331 332 331 330 330 330 331 331 331 330 330 330
329 331 334 333 337 338 339 340 335 334 334 333 334 333 333 334 330 332 337 332 330 329 327 327 329 329 328 328 327 327 329 329 329 330 331 333 332 330 330 332 332 333 333 333 333 333 333 334 334 334 333 333 333 333 334 335 335 334 334 334 333 332 333 334 333 332 331 330 331 334 335 335 336 336 336 336 337 337 335 333 332 331 330 330 329 330 331 330 329 329 330 330 330 330 330 329 329
329 331 329 329 340 339 332 335 333 331 335 336 329 328 336 334 325 328 331 326 327 326 325 326 327 328 328 328 328 328 329 329 329 329 331 331 330 329 330 331 332 333 333 333 333 333 334 334 334 334 334 333 333 333 334 334 335 334 334 334 333 333 333 334 333 332 331 331 332 335 335 335 336 336 336 337 337 335 333 332 331 330 330 329 329 329 328 328 329 329 329 329 329 329 329 329 329
326 328 326 324 336 339 330 330 336 337 335 333 327 330 339 335 327 329 326 325 329 325 325 328 328 329 330 330 330 329 328 329 329 329 331 331 329 329 331 331 332 333 333 333 333 334 334 334 334 334 334 334 333 333 334 334 335 334 334 334 333 333 333 333 333 332 331 332 333 335 335 335 336 335 336 337 336 333 332 331 330 330 329 329 329 328 327 328 328 329 329 329 328 328 328 328 328
329 324 327 328 331 340 334 325 333 337 329 331 330 330 339 334 324 330 332 332 332 327 327 330 329 332 331 330 330 329 328 329 329 329 330 331 329 329 331 331 332 333 333 333 334 334 334 334 334 334 334 334 333 334 334 334 334 334 334 334 334 334 333 333 333 331 331 332 333 334 335 335 336 336 336 337 335 333 332 330 329 328 328 329 329 328 327 327 328 328 328 328 328 327 327 326 326
331 325 329 329 324 334 336 329 336 334 325 334 335 330 337 333 324 332 337 334 332 329 330 331 330 332 331 330 330 328 329 328 328 330 330 330 329 329 330 331 332 333 333 333 334 334 334 334 334 334 334 334 333 333 333 334 334 334 334 334 334 334 334 333 333 331 331 332 334 334 335 335 336 336 336 336 335 333 331 329 327 327 328 328 328 327 326 326 327 327 327 327 326 326 325 324 323
332 332 330 326 323 327 327 326 333 329 322 332 335 330 332 331 330 333 332 336 336 330 331 332 332 333 330 329 330 330 330 330 330 330 330 330 329 329 331 331 331 333 333 334 334 334 335 334 334 334 334 335 333 333 333 333 333 334 334 334 334 335 334 333 333 332 332 333 334 334 335 336 336 336 336 336 335 333 331 329 327 326 326 327 327 326 326 325 326 326 326 326 325 324 323 321 321
326 328 325 328 335 333 326 324 329 330 329 328 327 326 326 332 343 339 332 342 342 332 334 335 332 333 330 328 330 331 332 332 330 329 330 330 329 329 330 331 331 332 332 333 334 334 335 334 334 334 334 335 334 333 333 333 333 333 334 334 335 335 334 333 333 333 333 333 334 335 335 335 335 336 336 336 335 333 331 330 327 325 325 326 326 326 326 325 325 325 325 324 323 323 321 320 319
325 326 323 325 329 326 324 324 324 329 335 331 326 325 327 337 346 338 334 340 337 333 337 335 331 331 329 328 330 331 332 332 330 329 330 330 328 328 330 331 331 332 332 333 333 334 334 334 334 334 335 335 334 333 333 333 333 333 334 334 334 335 334 333 333 333 333 334 334 335 335 335 335 335 336 336 336 334 331 330 328 325 324 325 325 325 325 324 324 324 323 323 322 321 319 318 317
334 334 329 330 329 325 326 323 322 329 332 333 333 327 329 339 336 331 333 334 332 331 330 331 330 329 329 330 330 331 332 332 331 330 330 330 328 328 330 331 331 331 332 333 333 334 334 334 334 334 334 335 335 333 333 333 333 333 334 334 334 335 334 333 333 333 333 334 334 335 335 336 335 335 336 336 336 334 332 330 328 326 325 324 324 324 324 324 323 322 322 321 320 319 318 317 316
Wind_Speed
4 3 3 4 4 2 2 2 2 2 3 2 2 0 2 4 3 3 3 2 1 0 1 1 1 2 2 3 5 6 5 2 2 2 2 2 10 13 11 13 13 10 11 11 10 9 7 6 5 5 4 4 4 3 3 3 3 3 3 3 2 2 2 2 2 2 2 2 2 3 4 4 5 5 4 3 4 4 3 4 4 3 3 3 4 4 5 5 5 6 6 5 5 5 5 4 4
6 6 6 6 4 2 1 3 3 3 4 2 2 2 3 2 1 3 4 3 1 2 2 2 4 4 3 3 5 4 6 6 3 2 3 9 13 11 12 12 10 10 10 11 10 9 7 6 5 5 4 4 4 4 4 3 4 4 3 3 2 2 2 3 3 3 3 3 3 3 4 5 5 4 4 4 4 5 5 4 5 5 4 4 4 5 5 5 5 6 6 6 6 5 5 5 5
6 7 7 6 3 2 1 3 3 1 4 1 3 3 2 1 2 2 3 0 3 3 2 3 4 3 4 4 4 3 3 4 5 4 5 11 9 9 12 10 9 9 11 11 10 8 7 6 6 6 5 4 4 4 4 4 4 4 3 2 2 3 3 3 3 4 4 4 4 4 4 5 4 4 5 5 6 6 5 5 5 5 5 4 4 5 5 5 5 6 6 6 6 6 6 6 5
6 6 4 4 2 3 3 3 2 3 2 2 2 4 2 1 3 1 2 2 3 1 1 3 3 3 3 6 4 3 4 3 5 4 5 6 7 11 13 9 9 9 11 10 9 8 7 7 7 7 5 4 4 4 4 4 4 4 3 3 3 3 3 3 4 4 5 5 5 5 5 5 5 5 5 6 6 6 6 6 6 6 5 5 5 5 5 5 6 6 6 6 6 6 6 6 6
6 5 2 2 2 1 2 2 2 3 2 3 1 5 3 3 1 2 3 3 2 3 2 3 2 3 3 4 2 2 3 3 5 5 5 6 11 14 11 9 9 9 10 9 8 7 8 8 7 6 4 4 4 5 5 5 5 5 4 4 4 4 4 4 4 5 5 5 5 5 5 5 5 5 6 6 6 7 7 7 6 6 5 6 6 5 5 5 6 6 6 6 7 6 6 6 6
6 5 2 1 2 1 2 2 1 1 3 4 2 5 3 2 1 2 3 5 5 5 4 3 2 0 2 3 2 3 3 2 3 4 5 9 15 13 10 10 9 10 9 8 7 7 9 8 7 6 5 4 5 5 5 5 6 6 5 5 5 5 5 5 5 6 5 5 5 5 5 6 6 6 6 6 6 7 7 7 6 6 6 6 7 6 6 6 7 6 5 6 7 6 5 5 5
5 3 1 3 1 1 3 2 3 2 3 3 3 4 2 1 2 2 3 3 4 5 4 3 2 2 3 2 2 4 5 3 2 4 9 14 15 12 11 9 9 10 8 7 7 8 9 8 7 6 6 5 4 4 5 5 6 5 6 6 7 6 6 6 6 6 6 6 6 6 6 7 7 7 7 7 7 7 8 8 7 8 7 7 7 7 6 7 7 6 5 5 5 5 5 4 4
3 1 1 3 1 3 4 1 3 3 3 2 3 3 1 1 2 2 2 1 1 3 3 3 3 3 2 2 2 3 7 6 4 7 13 16 14 12 10 9 9 8 7 7 7 8 9 8 7 7 7 7 5 5 5 5 5 5 6 7 8 8 8 8 7 7 7 7 7 7 7 7 7 8 7 7 8 8 9 9 9 9 8 8 8 7 7 6 7 7 5 5 5 4 4 4 3
2 1 1 3 1 2 2 2 3 3 3 1 2 2 2 2 3 3 2 1 1 2 2 2 3 3 2 3 3 2 6 6 7 10 14 14 13 12 10 8 8 8 7 7 8 9 9 8 7 8 8 8 8 8 7 7 6 6 6 7 8 9 10 10 10 10 9 9 9 8 8 8 9 9 9 9 9 10 10 10 10 10 10 10 10 10 8 7 6 7 5 5 5 4 4 4 3
3 2 2 2 2 2 4 2 2 2 3 2 2 3 2 1 3 3 3 2 2 2 1 2 4 4 4 3 2 1 2 7 11 13 13 12 11 11 9 8 7 7 8 7 9 9 9 8 7 8 9 9 9 9 9 9 8 8 8 8 8 8 9 10 11 11 11 11 10 9 10 10 10 11 11 10 10 10 10 10 9 10 11 10 10 11 9 7 7 7 6 6 5 4 4 4 4
3 3 2 3 3 1 3 3 3 3 4 3 3 2 0 1 3 3 3 3 3 3 2 2 4 4 4 2 1 0 4 10 14 15 13 11 10 9 9 8 7 7 7 8 9 9 9 8 7 7 8 8 8 8 8 8 9 9 9 8 8 8 9 9 10 11 11 11 10 9 9 10 11 11 11 11 10 10 10 10 10 10 10 10 10 11 10 9 8 7 7 6 6 5 4 4 4
2 2 4 3 1 2 3 2 3 4 4 3 2 2 1 2 4 2 3 3 2 3 3 2 3 3 3 2 1 0 5 10 14 15 13 11 9 9 8 8 8 7 7 8 9 9 9 8 7 6 5 5 6 6 7 7 7 8 8 8 8 8 8 9 9 10 10 10 9 8 8 9 10 10 10 10 10 10 10 10 10 10 10 11 11 11 11 10 9 7 7 6 6 6 5 4 3
2 1 4 1 3 2 2 2 3 3 4 2 2 2 1 3 3 3 4 3 3 3 2 1 3 3 2 1 2 2 3 9 14 15 13 12 10 9 8 8 9 8 7 8 8 9 8 6 5 4 4 4 4 5 5 6 6 7 8 7 7 7 8 9 9 9 9 9 8 6 6 8 9 9 9 10 10 10 10 9 10 11 11 11 11 12 12 11 10 8 8 6 6 7 6 3 1
3 3 4 1 1 1 2 1 2 1 3 4 2 1 2 3 2 3 4 4 4 2 2 2 3 4 2 1 2 3 2 8 14 15 13 11 10 9 9 10 10 9 8 7 8 8 6 5 3 2 2 3 3 4 5 4 5 6 7 7 6 6 7 8 9 8 7 7 7 5 6 7 8 9 10 10 10 10 9 9 10 11 12 12 10 11 12 11 11 8 8 8 8 8 5 2 4
4 2 4 2 2 1 2 2 1 2 4 3 3 2 4 2 2 3 3 4 1 2 1 1 1 1 2 3 3 1 6 8 14 14 13 10 10 11 11 11 10 9 8 7 7 6 5 3 2 1 2 3 4 5 5 5 3 4 5 6 7 6 7 8 7 7 6 5 6 5 5 7 8 9 10 10 10 10 10 10 11 12 12 11 12 13 12 10 11 10 9 9 10 8 5 6 8
3 3 4 2 0 1 2 2 1 1 4 3 3 4 6 1 1 3 1 4 3 1 1 1 1 1 3 3 5 7 8 10 13 13 12 10 10 12 12 11 11 9 8 7 5 4 3 3 2 2 3 4 5 6 7 6 1 2 3 4 7 7 7 7 6 6 4 3 5 5 6 7 8 9 10 10 11 11 12 12 12 12 12 11 13 14 12 10 11 12 11 10 9 8 8 10 10
2 4 3 1 2 2 3 3 3 2 3 3 3 3 6 1 0 2 1 5 5 1 3 0 1 2 3 1 4 13 12 11 13 12 10 10 11 12 12 12 12 11 9 7 5 3 2 2 2 2 4 6 7 7 7 5 1 3 2 3 5 6 7 6 5 5 3 2 4 6 7 7 8 9 9 10 11 12 13 13 13 12 13 12 12 12 11 10 11 12 11 10 9 9 11 12 10
3 3 2 1 2 3 4 6 6 3 2 5 4 4 7 3 1 2 2 5 3 3 3 1 3 3 3 2 5 12 11 11 12 12 11 11 11 11 11 12 12 12 10 7 5 2 2 2 2 3 6 7 7 6 4 2 3 4 2 2 4 6 6 5 5 5 4 3 4 6 7 8 8 8 9 11 12 12 13 13 12 12 14 14 11 10 11 11 12 12 11 12 13 12 12 10 8
3 3 2 2 4 4 5 6 6 3 3 5 5 4 6 4 3 3 3 2 1 4 3 2 3 3 5 4 8 11 11 12 13 14 14 12 12 12 12 12 12 12 10 7 4 2 2 2 3 5 7 7 5 5 4 5 4 3 3 4 4 6 6 6 6 6 5 4 5 5 6 7 7 8 9 10 11 12 12 12 11 12 14 14 11 12 13 13 14 14 14 15 14 13 11 8 8
2 3 1 4 5 4 4 5 5 3 5 7 6 4 4 2 2 2 4 3 1 3 2 3 5 5 5 5 9 11 12 12 13 14 13 13 13 14 13 13 12 11 9 7 4 2 2 2 3 6 7 6 5 6 7 6 6 6 7 7 7 7 7 6 7 8 7 6 6 5 4 5 6 7 9 10 11 12 13 12 11 12 14 13 12 13 15 15 15 16 16 15 14 12 11 10 10
1 3 3 5 4 3 4 4 3 1 5 7 6 4 4 2 1 2 6 5 1 4 4 5 8 10 8 5 7 10 10 9 10 11 10 11 12 12 13 13 12 9 7 6 4 3 2 1 3 5 5 5 6 7 8 8 7 8 9 9 9 10 8 7 9 9 8 7 6 5 4 5 6 8 9 10 12 13 14 13 13 13 14 13 12 14 15 15 17 17 16 15 14 13 12 12 12
2 2 5 5 4 2 3 3 4 4 6 6 7 5 3 2 2 3 6 4 3 4 4 5 8 10 10 7 7 8 7 7 8 9 9 10 11 11 11 11 10 8 7 5 3 3 1 1 3 4 4 5 7 8 8 8 9 8 9 10 10 10 8 8 11 11 10 8 6 4 4 5 6 8 9 10 12 13 14 14 14 14 14 14 13 14 16 17 17 17 16 16 14 13 13 13 13
2 3 3 3 4 2 1 4 4 5 8 6 6 4 3 4 2 2 4 1 4 3 4 6 7 9 11 8 6 6 6 6 7 10 11 11 11 11 11 10 10 8 6 4 3 2 2 2 3 3 4 5 7 8 8 9 9 8 9 9 9 10 10 10 11 11 11 9 6 5 5 6 7 8 10 11 13 13 14 14 15 14 15 16 15 16 17 18 18 17 17 16 15 14 14 14 13
3 2 4 2 2 2 2 5 3 5 7 5 5 4 4 5 3 2 0 2 2 1 5 8 8 10 11 8 5 6 5 5 6 10 12 13 13 12 10 10 9 8 7 5 3 3 3 3 3 3 4 5 7 7 8 8 8 9 9 8 8 10 10 11 12 11 12 10 7 5 6 7 8 9 10 12 13 13 14 14 15 14 16 17 16 16 18 18 18 17 17 16 15 15 16 16 15
2 3 3 1 2 3 4 5 5 6 6 5 6 5 3 3 4 3 2 1 2 4 8 9 9 9 8 6 5 5 5 4 5 7 10 12 12 11 10 9 9 9 8 6 4 3 2 4 5 4 4 5 6 7 7 8 8 9 8 7 7 7 9 10 11 11 11 9 7 6 6 7 9 10 11 12 13 13 13 13 14 15 16 16 16 16 17 17 17 17 17 16 16 16 17 16 16
4 4 2 3 3 4 5 5 5 5 4 5 7 5 1 2 1 3 3 0 3 6 9 8 9 8 6 5 5 5 5 5 5 6 8 10 11 11 11 10 10 10 8 6 4 3 2 4 5 4 4 6 7 8 8 8 7 7 7 8 8 7 7 9 10 11 11 9 8 8 8 8 9 10 11 12 12 12 12 12 13 14 15 16 15 16 15 16 16 16 16 16 15 16 16 16 16
3 2 2 5 5 4 4 4 4 4 3 4 6 5 1 2 1 1 1 1 3 8 9 7 8 7 5 4 4 4 4 5 7 8 6 6 10 13 13 12 11 10 8 7 5 3 3 5 5 5 6 7 7 8 8 8 8 7 5 8 10 8 8 9 10 11 11 10 10 10 10 10 10 11 12 11 11 12 12 13 13 13 14 15 15 15 14 14 15 16 16 16 15 15 16 16 16
2 4 5 6 5 4 4 5 4 3 3 2 7 6 1 3 2 1 2 3 4 8 8 6 7 5 5 4 3 4 3 5 9 9 8 8 12 15 16 15 13 10 9 8 7 5 4 4 5 6 7 6 6 7 7 8 9 7 5 7 9 9 8 8 8 10 11 11 11 11 11 11 11 11 12 11 11 11 12 14 14 14 14 14 15 15 15 15 15 16 16 16 15 15 16 16 17
1 4 5 4 6 3 1 4 3 2 2 3 7 6 3 3 3 2 3 5 5 8 7 6 6 4 4 3 3 3 3 5 8 10 12 14 15 18 18 15 12 10 9 9 8 6 4 4 4 6 6 5 5 6 7 7 6 6 5 5 7 7 7 7 7 9 10 10 11 12 12 12 12 12 12 11 10 11 12 13 14 14 13 13 14 14 15 15 16 17 16 16 15 15 16 16 17
1 3 5 3 5 3 3 3 2 3 2 4 5 3 4 5 3 1 4 6 7 7 6 5 5 4 3 2 3 3 3 5 7 10 13 14 15 18 17 14 12 10 10 10 10 7 5 4 4 5 5 4 4 6 7 7 6 7 5 4 6 6 6 7 7 9 10 10 10 11 12 12 12 11 11 11 10 10 12 13 13 14 13 12 13 13 14 14 15 16 15 15 15 16 17 17 18
2 2 3 3 2 3 3 3 4 3 0 2 5 3 3 5 3 2 3 5 8 8 6 5 5 4 3 3 3 3 3 4 6 10 12 13 15 15 15 14 13 11 11 11 10 8 6 5 5 5 4 3 4 5 6 6 7 8 6 4 6 6 7 8 8 9 10 11 10 10 11 11 11 10 9 9 9 9 11 12 13 13 12 11 12 12 12 13 13 15 15 14 15 15 16 17 18
3 2 2 2 2 3 4 3 5 4 2 1 4 2 3 4 4 3 3 4 6 7 6 5 5 4 4 3 3 3 3 3 5 8 10 12 15 14 15 15 14 13 12 12 11 9 7 6 5 5 3 3 4 5 5 5 5 7 6 6 7 7 8 9 9 10 11 11 10 9 10 10 10 9 8 7 7 8 10 12 12 11 11 10 11 10 11 12 13 15 15 15 15 16 17 17 17
3 2 2 2 2 1 2 3 5 5 5 0 1 2 2 2 4 4 4 5 5 5 5 5 5 4 4 4 3 3 2 2 3 6 10 12 15 15 16 16 15 14 12 12 12 10 8 7 5 4 3 3 4 4 4 4 6 7 6 6 7 8 10 9 9 10 11 11 9 9 8 8 9 9 8 7 6 7 9 11 11 10 9 9 10 10 11 12 13 14 15 14 15 17 18 18 17
4 2 0 2 2 2 1 3 4 6 6 3 2 3 3 3 3 5 5 6 5 5 5 5 5 4 4 4 3 3 3 4 4 7 11 12 15 16 16 17 15 14 12 12 11 9 8 7 6 4 3 4 4 4 4 5 7 8 7 6 6 8 10 10 8 7 8 9 8 8 7 7 8 9 8 7 7 9 9 10 12 12 10 9 10 11 11 12 12 13 14 14 13 16 18 18 18
2 1 1 2 1 2 3 3 4 8 5 4 5 2 4 3 2 5 5 6 6 5 5 4 5 5 4 4 4 4 4 5 6 9 11 13 14 15 16 17 16 15 14 12 10 9 8 7 6 4 4 4 4 4 5 6 8 8 6 5 5 7 9 10 9 8 7 8 9 9 7 7 9 9 9 8 9 10 10 11 13 13 12 11 12 12 12 12 12 13 14 14 13 14 15 16 17
5 4 3 3 2 3 5 4 5 10 6 4 7 4 4 3 4 6 5 5 6 6 5 4 4 4 4 5 4 5 5 6 8 9 10 12 14 15 16 17 17 16 15 12 11 10 8 8 6 5 4 4 5 4 5 7 7 7 6 5 6 6 7 9 11 10 11 11 11 10 9 8 8 8 8 9 9 10 10 10 10 12 13 13 14 14 13 12 12 12 13 13 12 12 12 13 13
4 3 2 3 3 4 4 4 5 9 6 4 7 5 4 5 5 7 6 5 6 6 6 6 5 5 5 5 5 6 6 5 6 8 9 11 13 14 15 17 18 18 16 13 12 11 9 8 7 6 5 4 5 5 4 6 7 7 7 6 6 6 6 7 9 10 11 11 11 10 9 8 7 7 7 8 9 10 10 9 8 9 11 13 14 14 12 11 11 11 12 12 12 11 11 11 10
4 3 0 2 3 5 5 3 6 8 5 2 5 5 4 5 5 5 5 7 8 9 8 8 7 6 5 6 7 6 5 2 3 6 8 10 12 13 15 18 20 19 18 15 14 12 10 9 8 7 5 5 5 5 4 5 5 6 7 7 7 6 6 5 6 8 9 9 8 8 7 7 6 7 8 8 8 10 10 10 10 10 11 12 14 14 12 10 10 10 11 12 12 11 9 8 7
3 3 0 3 2 3 4 1 4 6 2 1 5 6 3 3 4 5 7 8 8 8 9 8 7 6 6 7 7 6 5 4 4 6 8 11 13 14 16 18 20 20 19 17 15 13 12 10 9 7 6 5 5 6 5 5 5 5 6 8 7 6 6 5 4 5 6 6 6 6 6 6 6 8 9 9 9 10 11 12 12 12 12 12 13 14 13 12 11 10 11 12 12 11 8 6 5
3 3 1 3 3 0 2 3 4 5 2 2 6 4 2 2 2 4 7 8 5 6 8 6 6 7 8 7 6 6 7 6 6 5 6 10 13 14 16 18 20 19 18 18 16 15 14 12 10 8 7 6 6 7 6 6 6 5 7 9 8 6 6 5 5 4 4 5 6 6 6 6 7 8 10 11 11 11 11 12 12 12 12 12 13 15 15 14 13 12 12 12 12 12 9 6 5
3 5 4 3 1 1 2 1 4 3 2 2 6 4 4 2 4 4 5 5 5 5 6 7 7 7 7 6 6 7 8 8 7 7 6 8 12 15 17 19 19 19 19 19 18 17 15 12 11 8 7 7 7 8 8 7 7 7 8 10 9 7 6 6 5 4 4 5 6 6 6 7 8 9 10 11 11 11 10 11 11 11 12 12 12 14 15 15 14 13 13 13 13 15 13 11 10
2 4 6 6 4 6 4 5 5 4 3 2 4 3 5 3 4 7 4 4 7 5 6 9 8 7 6 7 7 8 8 8 8 8 7 8 12 15 16 18 19 20 21 20 19 17 15 12 11 9 7 7 7 8 8 8 8 10 10 11 10 9 7 6 6 5 4 5 5 6 7 7 7 8 9 9 9 9 9 9 10 10 11 11 11 12 13 14 14 14 13 14 15 16 17 17 16
2 4 9 8 8 9 7 5 4 3 2 4 3 4 3 4 4 8 6 7 9 6 7 10 8 7 7 7 8 7 7 7 7 7 7 9 12 14 15 18 21 22 22 21 19 18 15 13 13 11 9 8 8 8 9 9 11 11 11 11 11 10 8 7 7 6 4 4 5 6 7 7 6 6 6 7 7 8 8 8 8 9 9 10 10 11 11 12 12 13 13 13 14 14 16 17 16
2 5 8 8 7 9 8 5 4 2 2 3 3 4 1 3 5 6 6 8 8 7 9 10 8 8 8 8 8 8 8 8 7 7 8 9 13 16 18 21 23 24 22 21 20 19 16 14 14 13 10 10 9 9 11 11 12 11 10 10 10 10 9 8 8 7 5 5 6 7 7 7 6 6 6 6 6 7 7 6 6 7 7 8 9 9 10 10 10 11 11 11 12 12 12 13 13
4 3 7 6 5 5 6 5 3 1 2 3 4 3 2 4 5 3 3 8 8 9 11 11 10 10 9 9 9 9 9 9 8 9 10 10 15 19 21 23 24 23 22 21 21 20 17 15 15 13 12 11 10 11 12 11 10 10 10 9 8 8 8 9 10 8 6 6 7 7 6 6 6 6 6 5 5 4 4 4 4 5 5 6 7 7 8 8 8 8 8 9 10 10 10 11 12
3 7 9 6 6 5 5 5 3 3 3 3 5 3 2 4 5 2 3 5 8 10 10 10 10 10 10 9 8 8 7 7 8 9 10 13 18 20 21 22 23 23 22 22 21 20 19 17 15 14 13 12 12 12 12 12 11 10 9 9 8 8 8 10 11 10 8 7 7 6 6 6 6 5 4 3 3 2 2 2 2 2 3 4 4 5 5 6 6 6 7 7 8 9 9 10 11
7 7 7 7 6 5 4 2 3 4 2 5 6 5 5 1 5 2 3 5 7 9 7 7 7 8 9 9 8 8 8 7 8 7 8 10 15 17 17 19 21 22 22 22 21 21 20 19 17 15 15 13 12 12 13 12 11 11 9 8 9 10 10 11 11 11 9 8 7 6 6 6 6 5 3 1 1 1 1 1 1 2 3 3 3 4 4 5 6 6 6 6 7 8 9 9 10
7 5 5 5 4 4 4 3 3 3 3 6 4 2 5 1 5 5 5 6 5 8 8 9 10 9 9 8 8 9 8 8 8 7 7 8 10 12 15 18 19 20 21 22 23 22 22 20 18 17 16 14 13 13 13 13 12 12 10 9 10 11 11 12 12 11 11 10 8 7 7 7 6 4 2 0 1 1 1 1 2 3 3 4 4 4 5 5 6 6 7 7 8 9 9 10 11
5 5 5 5 2 3 2 3 1 1 3 3 1 3 3 4 7 6 7 8 7 8 10 11 11 10 9 8 8 8 7 8 8 8 8 8 8 11 15 17 18 20 22 23 24 24 23 22 20 19 18 16 14 14 14 13 13 12 11 10 11 12 12 12 12 11 11 10 9 9 8 7 5 3 1 1 1 1 1 2 3 4 5 5 5 5 5 6 6 7 8 9 10 10 10 11 13
4 5 5 4 2 3 1 3 1 2 3 2 1 2 1 4 5 5 8 9 8 9 9 10 11 11 10 9 8 8 8 9 8 8 9 8 9 12 16 19 20 21 23 25 25 25 25 24 22 21 19 17 16 15 15 14 13 12 11 10 12 12 13 13 12 12 11 10 10 10 9 7 5 2 1 1 0 2 2 3 4 5 6 6 7 7 7 6 6 8 10 11 11 11 11 12 13
3 3 5 5 4 3 2 3 2 2 2 2 3 2 2 1 2 5 7 7 5 7 6 6 7 7 6 6 6 7 8 8 8 8 9 9 12 16 18 20 21 23 25 25 26 26 26 26 25 23 21 19 18 17 17 16 14 12 11 11 13 13 12 12 12 12 12 11 12 11 9 7 4 2 2 1 2 3 2 3 3 4 6 6 7 7 7 6 6 8 10 11 12 11 10 12 12
0 2 5 2 4 5 1 2 4 3 1 1 2 2 3 4 4 5 4 3 1 3 4 4 4 4 5 6 7 8 8 8 8 9 9 10 13 17 19 20 22 24 25 26 27 27 27 27 27 25 23 21 20 19 19 18 16 14 13 12 13 13 13 13 13 12 12 12 13 11 9 6 4 3 3 2 3 3 2 2 3 4 5 6 6 6 6 7 7 9 10 11 12 11 11 12 12
1 2 3 4 4 7 4 1 0 3 3 1 1 2 5 2 2 5 6 6 5 4 4 4 4 6 7 7 7 8 8 9 9 9 10 10 13 17 20 22 23 24 25 27 28 29 29 28 28 26 24 23 22 20 20 20 19 17 16 14 14 15 15 14 14 14 13 13 13 11 9 7 5 4 4 4 5 4 1 1 2 3 4 5 6 6 6 7 7 8 9 10 11 11 11 12 12
5 2 5 3 2 5 4 2 3 4 2 2 2 1 5 2 1 5 6 5 4 3 4 3 4 5 7 7 7 8 8 9 9 9 9 9 12 16 20 22 24 26 27 28 29 29 29 28 28 27 26 25 24 22 21 20 21 20 18 17 16 15 16 16 15 14 14 14 14 12 10 8 6 6 6 5 6 5 2 1 1 3 4 5 5 5 6 7 7 8 9 10 10 10 10 12 12
5 4 4 3 2 1 1 2 0 1 1 3 4 2 2 1 1 4 2 2 3 3 4 5 5 7 7 7 7 7 7 7 7 7 7 8 11 16 20 21 24 25 26 28 29 29 28 28 28 28 27 26 25 24 22 21 21 21 20 19 17 15 16 17 17 16 15 16 16 14 11 9 8 8 7 7 7 6 4 3 2 3 4 4 4 5 6 6 7 8 9 10 10 9 10 12 12
3 3 2 2 2 3 2 2 2 2 3 1 2 3 1 3 4 3 4 6 6 5 5 6 8 8 8 7 7 7 7 8 8 9 9 9 12 18 22 23 24 25 26 26 27 27 28 28 28 28 28 26 25 25 24 22 22 22 21 20 17 16 16 18 17 17 17 17 16 14 12 11 10 9 9 8 8 8 6 4 3 3 4 5 5 5 6 7 7 8 9 9 9 8 9 11 11
2 3 2 0 2 2 2 1 2 3 4 2 1 2 3 5 4 4 6 7 5 6 6 7 8 9 8 8 7 8 8 8 8 9 10 9 12 17 21 22 23 25 25 25 25 27 28 28 28 28 28 27 26 26 25 24 23 23 23 22 19 17 17 18 18 18 18 18 17 15 13 12 11 11 10 9 10 9 8 6 4 4 4 5 6 6 7 7 7 8 8 8 8 7 8 10 10
5 4 4 3 3 4 3 1 1 1 3 2 4 2 5 5 2 3 6 5 5 6 5 6 7 9 9 8 8 9 9 9 9 9 9 8 10 15 18 19 21 22 22 24 25 26 27 27 28 28 28 28 28 27 26 25 24 24 24 23 21 18 18 18 19 20 20 19 18 16 15 14 13 12 11 11 11 11 10 8 6 5 5 6 6 6 7 7 6 7 8 7 6 5 6 7 8
Wind_Direction
152 140 132 125 117 98 341 67 78 330 75 87 279 272 247 228 205 223 245 232 184 220 247 313 33 28 90 117 130 110 52 69 142 147 183 155 142 139 134 141 141 134 124 118 120 117 107 97 84 76 71 73 73 60 45 30 25 22 27 28 33 31 31 35 40 45 56 73 66 53 47 56 58 46 36 19 6 12 13 9 8 7 0 341 335 327 322 321 317 315 313 313 306 301 294 279 264
153 135 123 114 90 77 254 78 88 339 50 39 288 189 250 282 192 214 244 247 134 146 162 67 72 63 48 93 115 98 45 44 82 101 103 132 138 133 139 145 139 131 128 130 128 123 112 96 84 79 76 76 62 42 26 16 16 13 21 25 29 32 34 44 47 50 60 67 66 61 56 61 53 40 33 22 22 21 21 20 14 7 1 347 336 324 322 321 318 318 316 314 314 310 301 292 276
152 134 123 120 78 47 77 45 89 57 68 65 281 238 264 349 232 252 300 299 124 144 137 43 60 38 5 40 46 51 63 61 78 82 118 137 137 136 147 144 135 136 134 133 127 121 106 92 86 81 77 69 48 31 16 10 11 8 18 31 44 44 44 54 56 55 57 62 66 67 66 60 46 41 37 29 29 25 23 22 17 7 359 345 334 326 324 328 323 322 321 318 317 312 304 300 297
150 126 114 132 56 29 66 41 123 114 101 184 273 276 275 205 235 304 359 102 141 134 47 36 39 352 20 57 27 40 90 78 55 76 127 132 139 147 149 145 140 136 133 130 123 114 97 90 86 82 76 59 41 26 17 16 17 22 43 61 60 55 60 62 62 62 58 62 67 69 65 53 42 39 31 28 26 21 20 18 16 6 359 349 340 337 333 334 328 326 323 322 321 316 310 306 303
147 127 121 144 81 45 97 70 121 104 178 188 230 274 262 207 274 349 11 47 30 14 43 74 48 339 51 66 3 25 76 80 53 72 101 112 143 150 147 144 140 133 133 128 118 106 92 93 90 86 74 52 37 27 31 37 44 56 65 68 65 62 70 70 67 64 62 63 65 66 60 48 38 30 24 26 25 19 17 16 16 8 3 356 347 346 347 341 334 333 327 325 324 321 320 312 303
137 140 122 74 92 163 108 73 154 179 224 176 181 263 266 173 22 10 24 31 29 37 50 72 93 33 65 40 23 35 33 91 68 83 110 131 149 150 143 141 137 135 132 121 110 98 96 99 96 89 74 56 38 42 58 62 66 71 70 66 66 67 68 69 67 64 60 57 57 56 50 44 36 28 27 28 25 19 17 12 8 6 4 357 353 355 356 350 346 345 337 331 325 327 327 313 300
145 162 32 58 36 47 98 141 197 232 241 177 189 253 267 140 81 53 16 16 22 27 41 59 86 98 79 41 53 36 30 57 85 126 139 144 149 147 142 138 134 132 122 114 105 100 104 106 102 92 83 73 54 62 73 74 71 64 62 63 65 67 68 70 69 64 59 52 49 47 46 46 42 38 36 30 25 23 19 13 9 9 4 1 5 360 352 353 353 353 346 337 327 326 321 301 298
141 163 17 88 25 21 92 187 226 210 227 202 217 248 220 142 102 71 5 18 24 15 56 53 48 81 97 57 79 32 34 60 106 138 146 145 147 143 137 131 130 129 121 117 109 112 117 114 108 95 92 92 85 82 78 80 74 57 51 49 56 62 63 64 65 64 60 56 50 49 51 51 48 42 37 32 27 25 23 20 15 9 5 10 15 4 353 356 357 355 350 344 333 324 321 311 319
94 51 44 81 55 16 43 308 280 233 242 286 270 291 39 91 105 100 68 74 117 100 70 7 28 94 137 69 76 25 36 83 124 141 147 145 143 136 130 126 130 130 127 122 117 123 126 124 113 100 98 96 94 91 86 86 82 73 65 58 59 62 61 58 56 58 58 57 55 56 58 55 50 44 40 39 35 31 28 25 15 8 14 17 15 12 9 8 3 360 359 353 343 334 339 333 326
44 24 104 70 69 15 342 298 276 263 260 288 277 281 358 30 88 98 116 105 85 86 14 355 49 97 130 89 69 4 71 122 137 147 152 148 139 130 127 130 136 134 127 126 127 131 135 134 119 107 102 95 92 86 84 81 75 67 62 61 58 57 56 53 51 51 50 48 49 57 62 58 54 49 47 44 41 36 29 25 13 10 18 16 12 15 15 15 11 11 12 359 359 4 355 346 325
32 351 94 72 64 22 298 267 277 275 281 316 315 280 272 63 85 66 67 77 61 68 19 27 72 103 107 76 42 22 123 142 148 151 156 153 142 136 136 140 147 139 127 129 135 140 143 142 135 119 106 97 89 82 81 74 67 55 44 42 43 47 46 46 47 46 44 40 40 51 59 58 55 52 49 42 38 34 28 22 13 12 15 13 14 13 11 15 16 23 24 7 15 22 5 5 336
63 331 64 84 144 211 224 236 287 285 310 333 323 306 119 80 82 73 70 78 67 69 25 32 119 123 85 65 274 114 128 149 157 155 159 161 158 154 151 151 152 145 134 137 143 145 145 146 145 134 115 98 85 82 78 72 64 46 33 30 33 39 44 45 42 41 41 38 38 46 55 56 53 49 45 39 34 31 30 23 13 14 17 17 16 14 13 16 20 26 27 16 24 29 20 22 344
108 148 81 102 193 178 185 199 288 303 323 280 230 289 57 69 94 144 123 89 54 74 4 271 141 105 91 131 328 343 137 160 164 162 165 169 173 172 168 165 159 153 144 148 153 147 144 144 144 134 115 89 75 73 67 70 62 43 32 26 34 36 40 43 36 31 30 34 40 48 57 58 53 48 44 39 37 34 31 23 15 16 21 21 16 18 18 18 22 23 27 28 37 37 31 34 17
140 150 107 116 242 136 163 183 276 246 280 256 210 312 48 68 127 142 117 80 33 96 229 262 133 108 100 129 6 337 257 181 173 173 175 178 185 186 185 178 170 162 153 152 153 150 146 141 138 122 94 69 54 45 39 46 48 44 30 16 27 34 31 32 26 16 12 22 35 54 66 62 55 50 49 44 40 36 30 22 16 19 24 21 16 25 26 22 22 23 34 44 48 46 44 67 66
151 126 95 103 358 6 183 209 210 168 246 240 178 135 78 65 153 108 116 108 48 228 213 344 74 129 159 162 148 241 266 206 179 181 183 190 200 201 201 189 179 171 163 158 151 149 145 140 132 102 57 43 20 11 13 18 42 55 31 16 22 24 17 18 12 1 353 7 33 64 75 68 62 55 52 47 44 38 34 31 23 26 29 20 18 32 37 28 24 29 46 52 52 55 62 69 64
135 103 72 85 298 246 211 205 115 120 248 218 164 130 88 357 166 103 195 126 137 255 7 27 4 10 148 165 149 163 230 217 185 190 192 197 202 203 208 198 188 183 180 176 162 145 131 128 115 68 34 22 355 346 349 351 47 108 52 33 27 12 359 5 4 357 352 11 43 73 79 75 70 60 54 49 48 44 42 42 37 36 35 26 23 31 40 34 30 40 52 55 57 68 73 68 63
85 88 74 79 195 205 211 190 164 178 225 192 179 136 105 8 27 106 21 91 126 116 20 119 41 30 142 203 155 162 200 210 191 194 188 186 186 192 206 204 199 196 195 193 175 142 108 110 94 44 24 8 352 345 340 336 189 155 98 43 20 356 350 6 15 17 16 33 58 79 80 81 77 66 56 49 46 47 48 44 41 39 35 36 32 32 42 42 41 49 59 60 61 67 68 65 63
78 100 122 175 193 198 195 188 192 186 186 176 182 152 122 139 162 131 70 58 80 83 30 12 37 38 124 161 164 164 185 190 188 184 169 169 173 182 201 206 207 205 203 204 188 137 96 88 47 25 15 360 355 358 4 45 145 157 119 26 358 345 360 24 34 42 44 48 75 88 82 81 80 68 53 47 46 48 49 44 41 36 33 37 37 38 47 51 52 61 70 67 64 62 61 63 65
118 124 137 206 202 212 209 190 191 178 170 155 152 145 118 141 163 122 108 70 68 94 47 41 69 70 94 123 146 154 168 169 173 169 163 167 173 184 198 206 208 208 207 203 184 134 101 65 27 14 3 357 13 36 60 92 104 110 78 38 16 5 22 42 47 56 60 63 84 95 84 77 74 61 50 51 51 48 46 44 43 38 37 38 39 44 50 54 57 64 68 67 67 69 71 74 68
162 119 143 238 212 229 246 204 208 193 155 134 134 137 95 131 165 93 124 121 115 151 149 127 143 148 128 133 138 146 156 158 164 164 166 172 180 190 194 201 204 205 204 198 182 142 115 61 23 1 360 17 53 64 76 90 88 83 72 59 48 37 38 49 60 68 74 76 89 101 88 76 67 57 58 58 53 49 47 47 48 45 42 43 49 53 54 55 59 65 68 70 73 74 74 72 64
154 127 182 232 188 218 258 202 208 167 135 129 122 108 97 167 150 100 129 116 278 224 212 175 158 155 146 144 138 142 145 148 162 161 169 176 183 194 193 197 198 199 195 190 184 154 138 63 10 357 15 50 63 70 82 92 89 79 73 66 56 47 44 58 71 75 82 86 96 110 96 77 62 56 62 61 56 55 53 52 55 53 49 54 60 61 61 63 65 69 72 73 72 70 70 70 69
151 206 202 207 156 199 255 163 141 115 103 104 115 124 141 146 91 126 133 128 227 220 210 184 155 150 147 146 141 139 138 148 161 163 177 181 187 195 195 199 197 192 183 176 170 155 159 70 14 14 56 64 63 76 90 95 83 74 74 67 58 52 54 71 75 77 87 94 105 112 92 69 58 60 64 63 64 61 58 58 61 60 58 63 68 68 70 72 72 75 76 75 73 73 74 75 76
147 266 256 227 196 217 253 122 129 124 111 114 135 144 122 101 89 147 135 185 252 218 163 149 140 141 139 136 136 141 149 161 169 176 185 186 194 200 198 201 195 186 176 165 152 144 145 90 37 48 90 70 68 85 97 92 75 68 66 61 60 60 63 75 75 75 85 96 102 95 72 62 61 66 67 69 71 64 61 65 65 67 68 68 71 74 77 78 77 79 79 78 76 74 75 75 75
108 258 283 265 199 175 108 118 123 116 118 139 137 108 110 127 139 136 123 278 273 136 121 121 123 126 128 130 137 153 167 177 188 191 194 197 203 206 207 205 195 187 180 167 145 133 125 81 65 99 101 71 76 97 99 86 74 62 50 48 63 67 66 74 75 73 80 88 84 68 58 61 68 70 74 77 72 65 67 70 70 74 74 72 75 78 80 81 81 82 81 78 74 71 71 71 71
121 218 257 82 77 101 100 102 101 98 106 126 111 99 152 179 142 112 332 336 126 125 113 112 116 118 126 142 152 161 173 188 206 203 206 210 209 211 215 210 199 191 186 174 161 146 116 84 91 103 92 77 85 101 97 85 75 55 40 44 58 67 65 68 75 72 75 81 71 57 56 65 72 74 82 81 69 66 71 74 74 77 78 77 80 82 82 83 83 81 80 76 72 68 67 67 67
202 206 225 118 94 105 106 92 97 99 106 121 103 82 136 260 47 59 356 352 148 119 108 114 118 124 138 155 168 169 180 196 205 201 208 213 213 217 214 209 202 191 187 181 176 170 113 101 107 93 85 92 95 97 93 86 70 47 47 59 58 62 66 71 78 73 73 78 71 64 65 71 73 79 88 80 68 68 72 77 78 78 80 81 83 85 84 83 82 80 78 76 72 68 66 65 64
181 166 73 101 113 110 106 103 111 106 97 122 111 95 104 290 350 74 20 170 152 110 104 116 120 138 154 158 179 172 183 203 201 190 183 195 203 209 208 203 198 191 192 186 182 189 139 121 110 91 96 100 95 90 86 79 61 44 56 68 66 69 73 80 80 74 75 75 74 73 73 76 80 88 89 76 69 72 76 80 81 80 81 83 86 87 87 84 81 79 78 76 73 70 67 66 63
110 124 61 44 72 84 97 111 137 118 74 115 113 99 42 341 358 218 183 148 139 116 112 121 123 145 159 155 176 164 178 192 189 178 165 183 195 196 198 197 193 191 196 189 188 195 165 137 112 97 102 99 90 83 78 76 62 48 61 72 74 76 74 79 78 76 79 77 79 78 75 79 86 92 86 74 73 75 78 82 81 80 81 86 89 89 87 83 81 80 79 78 75 73 71 68 66
108 120 82 14 31 48 130 116 152 126 101 164 115 72 349 324 310 266 170 136 123 118 121 131 133 149 157 158 170 160 170 168 170 176 182 192 193 192 193 192 189 190 193 189 192 194 175 150 122 103 105 95 83 81 78 78 67 55 65 70 71 74 68 67 76 81 84 84 84 80 76 80 86 90 83 74 75 75 77 81 80 79 82 89 91 90 90 86 85 83 82 82 81 79 74 71 70
130 81 90 62 26 331 248 129 143 93 108 184 110 46 301 290 283 220 148 138 124 126 139 148 148 154 157 166 183 182 175 166 177 187 191 190 186 189 190 185 185 187 186 187 192 195 182 157 126 108 106 89 78 82 79 82 80 66 65 64 52 58 64 64 79 90 94 92 86 83 79 80 84 86 82 72 72 75 74 78 80 80 82 90 94 94 94 93 90 86 85 86 84 82 78 75 72
96 61 60 85 93 275 275 154 150 91 171 198 84 82 263 291 283 167 156 148 137 147 161 163 167 169 173 183 199 220 207 191 199 194 190 185 183 188 185 180 182 186 189 191 193 192 176 151 124 113 105 90 88 89 83 86 88 73 66 65 45 46 67 75 86 94 102 98 89 84 78 78 81 80 78 70 69 74 73 75 80 81 81 87 94 96 98 98 94 89 86 86 87 85 82 79 74
49 84 326 342 150 262 296 203 179 134 170 241 69 99 258 274 240 207 167 148 144 160 173 174 182 186 190 196 202 229 250 228 216 202 195 188 185 188 185 183 184 189 196 196 193 187 171 150 128 119 113 110 104 98 87 85 97 88 78 72 51 47 68 81 88 93 104 103 93 86 77 73 73 70 68 63 68 79 75 75 80 82 82 86 92 97 102 105 100 94 90 87 86 85 83 81 78
1 86 224 272 157 244 298 223 210 144 133 179 73 141 231 240 219 205 167 156 149 164 185 188 192 204 203 207 209 216 245 255 233 211 203 197 194 191 187 188 189 192 197 196 192 186 173 151 133 127 126 133 121 109 97 89 101 101 93 81 60 54 67 80 90 94 100 101 94 87 77 70 68 66 64 62 81 91 81 79 81 82 85 92 98 100 105 109 107 101 95 87 83 82 82 82 82
326 34 147 244 185 180 218 250 227 144 135 177 144 132 215 242 216 193 177 165 158 178 202 202 200 212 211 211 217 212 218 235 237 214 203 203 203 197 192 192 191 189 190 193 192 186 174 151 140 144 140 140 136 123 110 103 106 106 101 87 68 61 68 75 86 97 97 93 91 86 79 76 75 74 72 76 93 98 90 87 85 81 86 97 102 104 108 113 113 107 100 93 83 80 81 82 84
212 193 129 276 238 190 212 244 198 159 148 160 149 174 242 255 209 192 191 167 171 200 207 206 211 213 216 214 215 216 213 224 234 221 206 202 205 201 196 193 190 185 183 188 189 182 170 155 151 158 150 144 144 135 118 116 116 113 110 93 77 72 72 73 79 94 102 98 95 91 89 89 86 82 79 82 92 96 94 96 93 84 87 99 101 103 109 115 115 110 105 101 91 83 81 82 83
172 183 151 177 229 244 222 237 199 164 145 159 167 186 213 204 186 193 199 172 181 210 210 216 219 214 219 216 216 213 214 227 233 229 215 205 204 202 199 195 189 183 182 185 184 179 171 162 162 161 156 153 155 152 131 126 126 123 122 106 86 80 78 78 81 92 102 102 99 94 92 88 83 82 83 84 89 93 93 99 101 87 84 91 93 96 104 113 117 113 109 107 102 94 87 84 82
138 127 124 185 213 260 239 241 213 160 145 197 178 161 175 184 194 199 186 169 192 211 212 221 217 214 217 215 221 214 217 231 225 220 215 207 205 201 198 192 185 181 182 186 185 182 178 172 171 169 166 164 163 166 151 140 136 133 132 115 93 86 89 88 87 93 98 97 93 89 86 83 78 82 89 89 88 90 92 96 100 89 81 81 84 88 95 111 121 122 118 114 112 108 98 90 87
121 118 43 279 225 250 256 227 195 162 140 182 160 155 189 192 191 195 173 176 206 210 209 219 216 216 216 214 223 219 220 215 179 195 198 199 200 195 191 186 183 183 184 188 189 187 183 181 180 180 180 176 174 179 178 166 153 146 144 127 103 92 96 99 94 95 96 93 88 83 80 81 83 84 86 90 91 91 92 92 92 89 82 79 84 88 93 107 124 134 134 126 121 116 106 96 91
110 113 115 298 267 264 299 335 151 155 128 122 163 167 221 233 184 181 186 195 212 208 208 217 212 218 222 217 220 216 216 207 192 193 187 191 193 189 187 185 185 188 188 190 192 191 190 187 185 188 193 190 188 191 196 193 172 157 155 141 119 99 98 109 110 100 95 88 80 78 80 86 92 86 80 87 98 99 95 93 92 90 87 85 87 90 92 99 113 129 139 136 128 119 110 103 96
131 131 148 280 290 300 299 351 95 130 102 132 157 148 303 273 164 188 208 211 224 210 207 216 209 215 222 221 216 205 207 210 209 205 189 186 187 188 189 187 187 188 190 191 192 194 195 192 189 191 198 201 205 205 207 208 184 157 154 147 132 115 108 117 126 114 95 84 76 79 90 97 95 89 83 87 97 103 99 93 90 89 90 90 89 89 89 92 102 115 127 135 133 119 105 98 107
201 167 183 238 284 101 192 128 93 98 21 88 112 60 317 232 171 218 214 207 236 215 202 217 220 218 217 219 218 207 205 203 201 203 195 185 185 190 192 190 187 188 191 193 194 195 195 194 190 190 201 206 211 208 206 211 189 157 151 148 138 130 122 124 133 127 106 92 80 83 104 109 99 94 91 90 95 99 96 88 84 85 87 88 85 84 84 86 93 103 112 120 122 116 105 93 92
265 198 197 190 131 92 113 123 96 66 336 265 111 72 301 277 203 221 185 185 226 211 204 222 223 218 210 214 218 211 209 203 198 197 192 190 189 190 193 192 189 191 195 196 195 195 195 194 189 187 196 196 196 197 196 196 179 158 153 153 148 142 137 134 133 130 119 103 88 94 116 121 109 103 100 95 95 93 90 84 79 79 80 79 77 78 80 81 85 92 101 109 110 111 108 97 87
327 224 191 172 130 112 130 135 96 101 236 263 109 127 265 313 256 227 182 190 221 208 215 228 223 216 211 214 214 206 207 201 195 192 186 190 188 186 192 194 193 195 197 198 197 197 196 195 189 187 189 185 184 186 182 175 168 161 158 159 158 155 154 149 139 132 120 112 113 115 122 126 118 112 107 99 92 87 84 80 75 73 74 74 74 75 77 76 78 84 92 101 108 111 109 102 95
257 226 168 147 124 135 157 132 92 160 200 338 32 115 180 302 269 241 182 186 223 222 224 230 224 219 215 215 212 201 200 194 186 187 187 191 190 189 192 194 196 198 197 198 198 199 199 196 189 189 189 186 186 184 178 172 168 169 168 166 168 168 168 162 152 145 133 127 134 132 131 130 121 110 103 94 88 83 79 75 69 67 68 73 76 76 76 74 75 79 83 90 100 104 103 105 106
243 190 124 118 106 130 144 110 93 98 71 341 315 100 121 271 277 300 158 183 223 228 225 225 219 218 216 214 212 202 197 189 184 187 189 191 193 194 194 194 197 198 197 199 200 200 200 196 191 192 192 188 188 187 183 180 179 181 182 180 179 178 177 172 166 163 156 148 147 144 141 138 128 113 102 91 84 80 72 64 60 62 67 73 78 78 76 75 75 76 77 80 87 92 95 101 105
181 109 91 79 70 73 82 94 104 54 47 268 257 159 131 273 281 0 112 195 223 222 226 225 213 214 215 212 208 199 191 186 189 192 191 193 195 196 193 192 195 196 197 200 201 200 199 197 195 195 192 188 191 193 190 190 193 194 196 197 191 183 180 176 175 175 174 170 166 159 151 147 144 131 114 97 84 69 48 33 36 74 84 78 81 85 82 83 85 80 77 80 86 90 92 95 97
123 96 76 66 46 39 50 61 85 63 345 268 248 187 136 305 280 221 169 215 213 198 218 231 212 210 214 208 200 193 187 185 188 189 189 189 191 192 190 191 194 195 197 200 201 201 199 198 198 195 192 190 195 199 197 198 201 203 209 212 202 189 183 182 181 182 185 187 183 174 161 154 154 148 133 107 65 27 3 11 52 93 95 87 87 88 90 95 95 85 82 90 96 96 96 97 97
108 88 85 83 19 10 30 358 39 84 266 272 263 163 119 141 265 240 228 250 223 182 198 216 211 209 210 202 195 191 185 179 178 178 176 169 173 182 186 191 193 192 195 198 199 200 199 198 198 196 194 194 199 201 200 202 204 209 218 221 209 196 191 190 187 187 191 191 186 178 166 160 160 160 154 2 340 337 354 70 89 92 88 84 83 83 93 101 96 85 86 98 104 103 104 104 102
88 97 95 86 18 7 13 322 342 187 241 264 184 112 113 230 251 253 250 254 236 199 196 203 206 207 205 198 191 186 177 175 175 174 173 170 172 179 183 188 191 192 195 198 199 198 198 198 197 197 197 196 199 199 200 204 209 217 224 220 209 200 197 197 193 192 191 188 183 176 169 166 169 171 188 313 334 45 98 103 96 93 91 88 90 99 106 103 93 90 96 103 105 106 108 106 103
137 137 122 118 106 66 304 270 299 261 260 294 241 186 271 283 264 243 244 248 232 211 204 199 198 200 199 195 182 173 174 176 177 176 176 180 182 182 185 188 190 193 197 198 199 198 197 197 197 199 200 198 197 198 201 206 213 221 223 213 204 200 201 200 196 192 187 182 179 175 173 173 176 187 261 293 155 119 113 106 97 91 91 95 102 110 113 107 99 100 103 105 105 104 104 101 100
161 149 122 136 154 139 219 227 184 227 255 307 298 231 186 246 252 231 243 265 246 212 213 204 200 196 177 161 155 164 177 178 177 180 182 185 185 184 187 189 191 195 197 198 200 199 197 197 197 200 201 199 199 199 203 208 213 219 219 210 205 204 204 201 196 192 187 182 179 178 178 179 184 208 245 232 154 138 118 100 91 87 94 105 110 111 112 113 114 113 111 109 108 107 105 103 103
226 119 107 147 185 142 113 175 167 177 170 265 281 233 212 221 264 290 307 337 3 169 182 185 186 155 126 143 164 172 180 180 178 183 185 187 186 186 188 190 193 196 197 198 200 200 199 198 199 201 202 201 201 201 204 207 210 216 216 211 210 211 210 205 199 194 190 185 183 182 182 183 191 209 215 195 166 155 120 84 78 86 104 116 118 114 111 118 124 121 119 115 113 112 110 110 110
147 121 171 219 172 122 109 139 81 62 90 235 281 278 297 314 285 316 5 38 49 98 141 165 168 151 149 174 181 178 182 182 183 186 186 185 185 189 191 192 193 195 196 199 200 202 202 201 201 202 204 204 203 204 206 207 209 214 216 213 214 217 218 213 204 197 193 190 188 186 187 192 198 208 211 195 178 171 142 64 69 96 117 127 125 117 110 119 127 125 121 118 116 116 114 113 113
126 188 209 199 104 100 112 111 10 38 96 287 341 290 302 17 89 323 7 49 57 97 134 131 138 162 180 191 188 184 183 180 183 185 184 184 186 191 193 194 195 196 197 200 202 203 204 204 204 204 205 206 205 204 205 207 210 213 215 216 218 221 221 218 211 203 197 194 192 190 192 199 206 216 218 201 189 188 185 159 107 117 132 136 132 124 117 123 129 129 127 121 119 119 115 113 113
124 180 172 117 123 167 82 106 144 69 113 297 323 296 268 150 227 312 339 175 181 154 147 145 164 187 198 202 194 181 167 165 177 181 181 185 190 193 194 195 198 198 199 201 202 203 205 207 208 208 209 209 207 205 204 207 210 213 215 218 222 225 221 218 214 210 204 198 194 195 197 203 211 221 222 209 202 204 199 183 144 134 147 153 150 140 133 133 133 131 131 127 125 123 116 114 113
52 116 105 76 132 161 145 133 163 130 128 231 330 356 293 225 227 237 239 235 211 177 173 182 195 200 200 200 190 177 175 178 183 186 189 190 192 195 195 195 196 197 199 201 201 201 204 207 209 210 212 213 212 209 207 207 209 211 215 218 223 227 222 217 214 213 210 204 199 200 202 206 211 218 223 217 213 213 206 194 173 162 170 171 169 159 149 145 138 134 132 129 129 125 116 115 113
84 113 160 350 70 126 153 78 71 114 133 161 100 46 280 260 215 211 256 264 231 203 197 197 202 203 204 202 189 185 188 187 188 189 191 191 190 194 196 196 196 197 198 199 199 202 205 208 210 211 213 214 214 213 211 210 209 211 215 218 222 226 223 219 218 219 217 209 206 206 205 208 213 219 225 223 218 217 212 206 199 193 190 188 183 172 164 158 146 139 136 132 132 127 116 115 115
150 157 181 168 128 123 119 74 311 91 103 159 143 136 267 266 223 250 279 283 260 242 225 221 217 204 202 201 193 191 189 189 195 193 189 189 188 189 190 191 194 195 195 196 198 201 204 207 210 211 213 214 215 216 214 214 213 214 216 219 222 224 223 222 223 225 223 217 214 212 210 213 216 221 229 229 223 220 217 215 213 207 202 200 196 186 178 175 163 150 144 138 136 128 118 121 122